Johnstown, PA

7:48 PM EST on November 22, 2017 (GMT -0500)
Johnstown-Cambria County

Weather History for KJST - December, 2012

Change the Weather History Date:

Thursday, December 27, 2012

  Actual Average Record
Temperature  
Mean Temperature 23 °F 26 °F  
Max Temperature 25 °F 33 °F 66 °F (2015)
Min Temperature 21 °F 19 °F -3 °F (1914)
Degree Days  
Heating Degree Days 42 39  
Month to date heating degree days 971  
Since 1 July heating degree days 2428  
Cooling Degree Days 0 0  
Month to date cooling degree days 0  
Year to date cooling degree days 382  
Moisture  
Dew Point 22 °F    
Average Humidity 91    
Maximum Humidity 100    
Minimum Humidity 80    
Precipitation  
Precipitation 0.02 in 0.08 in 1.10 in (1895)
Month to date precipitation 2.26  
Year to date precipitation 33.31  
Sea Level Pressure  
Sea Level Pressure 29.73 in    
Wind  
Wind Speed 14 mph (WNW)    
Max Wind Speed 31 mph    
Max Gust Speed 39 mph    
Visibility 2 miles    
Events Fog , Rain , Snow    
T = Trace of Precipitation, MM = Missing Value Source: NWS Daily Summary

Daily Weather History Graph

Daily Weather History Graph

Search for Another Location

Airport or City:

Trip Planner

Search our weather history database for the weather conditions in past years. The results will help you decide how hot, cold, wet, or windy it might be!

Date:

Astronomy

Dec. 27, 2012 Rise Set
Actual Time 7:37 AM EST 4:56 PM EST
Civil Twilight 7:06 AM EST 5:26 PM EST
Nautical Twilight 6:32 AM EST 6:01 PM EST
Astronomical Twilight 5:59 AM EST 6:34 PM EST
Moon 4:38 PM EST (12/27) 6:46 AM EST (12/27)
Length of Visible Light 10h 20m
Length of Day
9h 19m
Full, 100% of the Moon is Illuminated
Dec 27
Full
Dec 28
Full
Jan 4
Last Quarter
Jan 11
New
Jan 18
First Quarter

Hourly Weather History & Observations

Time (EST) Temp. Windchill Dew Point Humidity Pressure Visibility Wind Dir Wind Speed Gust Speed Precip Events Conditions
12:10 AM 24.8 °F 16.9 °F 23.0 °F 93% 29.50 in 1.8 mi North 6.9 mph - 0.00 in Snow Light Snow
12:14 AM 24.8 °F 17.9 °F 23.0 °F 93% 29.50 in 1.8 mi North 5.8 mph - 0.00 in Snow Light Snow
12:22 AM 24.8 °F 15.3 °F 23.0 °F 93% 29.50 in 1.8 mi North 9.2 mph - 0.00 in Snow Light Snow
12:26 AM 24.8 °F 16.1 °F 21.2 °F 86% 29.50 in 2.0 mi North 8.1 mph - 0.00 in Snow Light Snow
12:47 AM 24.8 °F 16.1 °F 21.2 °F 86% 29.50 in 1.8 mi North 8.1 mph - 0.00 in Snow Light Snow
12:54 AM 24.1 °F 17.0 °F 21.9 °F 91% 29.59 in 1.8 mi North 5.8 mph - 0.01 in Snow Light Snow
1:34 AM 23.0 °F 14.7 °F 21.2 °F 93% 29.49 in 2.5 mi North 6.9 mph - 0.00 in Snow Light Snow
1:50 AM 23.0 °F 17.0 °F 21.2 °F 93% 29.50 in 4.0 mi NNE 4.6 mph - 0.00 in Snow Light Snow
1:54 AM 23.0 °F 17.0 °F 21.0 °F 92% 29.59 in 4.0 mi NE 4.6 mph - 0.00 in Snow Light Snow
2:26 AM 23.0 °F 17.0 °F 21.2 °F 93% 29.52 in 7.0 mi WNW 4.6 mph - 0.00 in   Overcast
2:46 AM 23.0 °F 14.7 °F 21.2 °F 93% 29.53 in 4.0 mi WNW 6.9 mph - 0.00 in   Overcast
2:54 AM 23.0 °F 13.9 °F 21.9 °F 96% 29.64 in 3.0 mi WNW 8.1 mph - 0.00 in   Overcast
3:08 AM 23.0 °F 14.7 °F 21.2 °F 93% 29.55 in 1.8 mi WNW 6.9 mph - 0.00 in Snow Light Snow
3:37 AM 23.0 °F 12.4 °F 21.2 °F 93% 29.56 in 1.5 mi WNW 10.4 mph - 0.00 in Snow Light Snow
3:54 AM 23.0 °F 11.7 °F 21.9 °F 96% 29.65 in 2.0 mi WNW 11.5 mph - 0.00 in   Overcast
4:04 AM 23.0 °F 11.7 °F 21.2 °F 93% 29.56 in 1.8 mi WNW 11.5 mph - N/A   Overcast
4:30 AM 24.8 °F 14.6 °F 21.2 °F 86% 29.57 in 2.0 mi West 10.4 mph - 0.00 in   Overcast
4:54 AM 24.1 °F 12.0 °F 21.9 °F 91% 29.66 in 2.0 mi West 13.8 mph - 0.00 in   Overcast
5:05 AM 24.8 °F 12.4 °F 23.0 °F 93% 29.57 in 1.5 mi WNW 15.0 mph - 0.00 in Snow Light Snow
5:40 AM 24.8 °F 11.9 °F 23.0 °F 93% 29.59 in 2.0 mi West 16.1 mph 25.3 mph 0.00 in Snow Light Snow
5:54 AM 25.0 °F 11.3 °F 23.0 °F 92% 29.68 in 2.5 mi West 18.4 mph 26.5 mph 0.00 in Rain Light Freezing Rain
6:46 AM 24.8 °F 10.0 °F 23.0 °F 93% 29.63 in 1.2 mi West 21.9 mph 33.4 mph 0.00 in Rain Light Freezing Rain
6:54 AM 24.1 °F 12.0 °F 23.0 °F 96% 29.72 in 1.2 mi West 13.8 mph 33.4 mph 0.00 in Rain Light Freezing Rain
6:59 AM 24.8 °F 13.4 °F 23.0 °F 93% 29.64 in 0.8 mi West 12.7 mph 25.3 mph 0.00 in Snow Light Snow
7:38 AM 23.0 °F 7.6 °F 21.2 °F 93% 29.65 in 1.0 mi West 21.9 mph 38.0 mph 0.00 in Rain Light Freezing Rain
7:54 AM 23.0 °F 6.6 °F 21.9 °F 96% 29.75 in 0.8 mi West 25.3 mph 38.0 mph 0.00 in Rain Light Freezing Rain
8:05 AM 23.0 °F 6.9 °F 21.2 °F 93% 29.66 in 0.2 mi West 24.2 mph 33.4 mph 0.00 in Fog , Rain Light Freezing Rain
8:21 AM 21.2 °F 4.2 °F 21.2 °F 100% 29.68 in 0.5 mi WNW 25.3 mph 34.5 mph 0.00 in Fog , Rain Light Freezing Rain
8:54 AM 21.9 °F 6.2 °F 19.9 °F 92% 29.79 in 1.0 mi WNW 21.9 mph 36.8 mph 0.00 in Rain Light Freezing Rain
8:57 AM 21.2 °F 4.5 °F 21.2 °F 100% 29.71 in 0.8 mi WNW 24.2 mph 36.8 mph 0.00 in Snow Light Snow
9:10 AM 21.2 °F 5.2 °F 19.4 °F 93% 29.71 in 1.0 mi WNW 21.9 mph 39.1 mph 0.00 in Snow Light Snow
9:41 AM 21.2 °F 6.4 °F 21.2 °F 100% 29.74 in 1.2 mi West 18.4 mph 29.9 mph 0.00 in Rain Light Freezing Rain
9:54 AM 21.9 °F 8.2 °F 21.0 °F 96% 29.84 in 1.0 mi West 16.1 mph 31.1 mph 0.00 in Rain Light Freezing Rain
10:04 AM 21.2 °F 6.8 °F 21.2 °F 100% 29.75 in 0.8 mi WNW 17.3 mph 26.5 mph 0.00 in Snow Light Snow
10:30 AM 23.0 °F 8.3 °F 21.2 °F 93% 29.76 in 0.8 mi WNW 19.6 mph 33.4 mph 0.00 in Snow Light Snow
10:54 AM 23.0 °F 8.0 °F 21.0 °F 92% 29.85 in 0.8 mi WNW 20.7 mph 36.8 mph 0.00 in   Overcast
11:21 AM 23.0 °F 7.2 °F 21.2 °F 93% 29.76 in 1.0 mi WNW 23.0 mph 33.4 mph 0.00 in   Overcast
11:54 AM 23.0 °F 8.3 °F 21.0 °F 92% 29.84 in 1.5 mi WNW 19.6 mph 34.5 mph 0.00 in   Overcast
12:00 PM 23.0 °F 9.6 °F 21.2 °F 93% 29.75 in 2.0 mi WNW 16.1 mph 28.8 mph 0.00 in   Overcast
12:03 PM 23.0 °F 9.6 °F 21.2 °F 93% 29.75 in 3.0 mi WNW 16.1 mph 25.3 mph 0.00 in   Overcast
12:14 PM 23.0 °F 6.9 °F 19.4 °F 86% 29.75 in 1.5 mi WNW 24.2 mph 32.2 mph 0.00 in   Overcast
12:25 PM 24.8 °F 9.0 °F 19.4 °F 80% 29.75 in 0.5 mi WNW 25.3 mph 36.8 mph 0.00 in Fog , Snow Light Snow
12:37 PM 24.8 °F 7.6 °F 21.2 °F 86% 29.75 in 0.8 mi WNW 31.1 mph 38.0 mph 0.00 in   Overcast
12:54 PM 24.1 °F 6.6 °F 21.0 °F 88% 29.84 in 1.0 mi WNW 31.1 mph 39.1 mph 0.00 in Snow Blowing Snow
1:01 PM 24.8 °F 8.4 °F 21.2 °F 86% 29.75 in 0.5 mi WNW 27.6 mph 39.1 mph 0.00 in Fog , Snow Light Snow
1:40 PM 24.8 °F 8.7 °F 21.2 °F 86% 29.76 in 1.5 mi WNW 26.5 mph 32.2 mph 0.01 in   Overcast
1:54 PM 24.1 °F 8.7 °F 21.9 °F 91% 29.85 in 2.0 mi WNW 23.0 mph 36.8 mph 0.01 in   Overcast
1:56 PM 24.8 °F 9.0 °F 21.2 °F 86% 29.76 in 1.8 mi West 25.3 mph 36.8 mph 0.00 in Rain Light Freezing Rain
2:15 PM 24.8 °F 8.4 °F 21.2 °F 86% 29.78 in 1.0 mi West 27.6 mph 36.8 mph 0.00 in Snow Light Snow
2:23 PM 24.8 °F 10.0 °F 21.2 °F 86% 29.78 in 0.8 mi WNW 21.9 mph 36.8 mph 0.00 in Snow Light Snow
2:33 PM 24.8 °F 10.0 °F 21.2 °F 86% 29.79 in 1.0 mi WNW 21.9 mph 32.2 mph 0.00 in Snow Light Snow
2:40 PM 24.8 °F 9.0 °F 21.2 °F 86% 29.79 in 0.8 mi WNW 25.3 mph 31.1 mph 0.00 in Snow Light Snow
2:54 PM 24.1 °F 8.3 °F 21.9 °F 91% 29.89 in 0.8 mi WNW 24.2 mph 35.7 mph 0.00 in Snow Light Snow
3:40 PM 24.8 °F 9.0 °F 21.2 °F 86% 29.81 in 1.0 mi WNW 25.3 mph 38.0 mph 0.00 in Snow Light Snow
3:54 PM 24.1 °F 8.0 °F 21.9 °F 91% 29.91 in 1.2 mi WNW 25.3 mph 31.1 mph 0.00 in Snow Light Snow
4:24 PM 24.8 °F 9.0 °F 21.2 °F 86% 29.82 in 2.0 mi WNW 25.3 mph 31.1 mph 0.00 in   Overcast
4:47 PM 24.8 °F 10.0 °F 21.2 °F 86% 29.83 in 1.5 mi WNW 21.9 mph 36.8 mph 0.00 in   Overcast
4:51 PM 24.8 °F 8.4 °F 21.2 °F 86% 29.84 in 3.0 mi WNW 27.6 mph 33.4 mph 0.00 in   Overcast
4:54 PM 24.1 °F 8.3 °F 21.9 °F 91% 29.93 in 4.0 mi WNW 24.2 mph 32.2 mph 0.00 in   Overcast
5:54 PM 24.1 °F 9.0 °F 21.9 °F 91% 29.95 in 5.0 mi WNW 21.9 mph 33.4 mph 0.00 in   Overcast
6:54 PM 24.1 °F 10.6 °F 21.9 °F 91% 29.97 in 8.0 mi WNW 17.3 mph 32.2 mph 0.00 in   Overcast
7:54 PM 24.1 °F 8.0 °F 21.0 °F 88% 30.01 in 10.0 mi WNW 25.3 mph 33.4 mph N/A   Overcast
8:54 PM 25.0 °F 11.7 °F 21.9 °F 88% 30.03 in 10.0 mi WNW 17.3 mph 27.6 mph N/A   Overcast
9:54 PM 25.0 °F 13.1 °F 21.9 °F 88% 30.04 in 9.0 mi WNW 13.8 mph 23.0 mph N/A   Overcast
10:54 PM 25.0 °F 10.6 °F 21.9 °F 88% 30.05 in 5.0 mi WNW 20.7 mph 32.2 mph 0.00 in   Overcast
11:54 PM 25.0 °F 10.2 °F 23.0 °F 92% 30.05 in 5.0 mi WNW 21.9 mph 32.2 mph 0.00 in   Overcast